Location: Melbourne
(37.8120°S, 144.9677°E)
Time: 13:37:45
(UTC+10:00)

Daily predictions for brighter satellites

Satellite Brightness Start Highest point End
(mag) Time Altitude Azimuth Time Altitude Azimuth Time Altitude Azimuth
COSMO-SKYMED 1 2.6 17:30:09 10° NNE 17:34:31 77° ESE 17:38:57 10° S
Meteor 1-21 4.3 17:28:53 10° S 17:34:35 62° E 17:40:18 10° NNE
Cosmos 1666 2.7 17:31:54 10° N 17:35:49 83° E 17:39:47 10° S
Cosmos 1980 Rocket 3.7 17:34:08 10° NE 17:37:38 17° E 17:41:10 10° ESE
ERS-2 2.3 17:33:59 10° SSE 17:37:43 58° ENE 17:41:22 10° N
Meteor 2-9 Rocket 4.4 17:35:33 10° N 17:41:13 59° E 17:46:47 10° SSE
Cosmos 2082 3.9 17:38:55 10° SSW 17:44:29 51° ESE 17:49:58 10° NE
Ariane Rocket 3.6 17:40:16 10° SSE 17:45:02 37° E 17:49:45 10° NNE
CENTAUR R/B 4.2 17:38:57 10° WNW 17:45:55 33° SW 17:52:14 10° SSE
Cosmos 1452 Rocket 4.1 17:42:00 10° NNE 17:46:53 39° E 17:51:48 10° SE
USA 234 3.7 17:41:32 10° NE 17:48:03 70° NW 17:54:40 10° SW
Cosmos 2297 Rocket 2.3 17:45:13 10° SSW 17:50:50 55° ESE 17:56:22 10° NE
Cosmos 407 Rocket 3.5 17:46:33 10° S 17:51:49 60° ESE 17:56:57 10° NNE
Cosmos 1867 3.7 17:48:29 10° SSW 17:53:47 50° SE 17:59:01 10° NE
Cosmos 1626 Rocket 4.1 17:50:07 10° SSW 17:54:28 63° W 17:58:46 10° N
Cosmos 2084 3.8 17:52:23 10° SW 17:57:19 87° WNW 18:01:59 10° NNE
Cosmos 1758 Rocket 4.4 17:53:52 10° SSE 17:57:42 28° ESE 18:01:31 10° NE
MSX 4.3 17:54:43 10° SSE 18:00:11 41° E 18:05:34 10° NNE
Cosmos 2369 3.8 17:55:39 10° NNW 18:01:19 81° WSW 18:07:03 10° SSE
CZ-4 R/B 2.4 17:58:57 10° SE 18:02:29 27° E 18:06:01 10° NNE
Cosmos 1656 3.7 17:57:40 10° NNW 18:03:22 78° ENE 18:09:08 10° SSE
Tiangong 2 1.2 18:00:32 10° WNW 18:03:47 74° NNE 18:06:07 18° ESE
Cosmos 1954 Rocket 4.4 18:00:06 10° S 18:05:14 43° ESE 18:10:15 10° NE
Meteor 1-15 Rocket 4.3 18:02:37 10° N 18:08:28 68° E 18:14:25 10° SSE
Cosmos 1437 Rocket 3.0 18:06:39 10° NNW 18:10:44 79° W 18:14:50 10° S
BREEZE-M DEB (TANK) 3.4 18:09:02 10° N 18:10:54 20° NE 18:11:35 17° ENE
Cosmos 1825 Rocket 3.6 18:07:01 10° S 18:11:22 57° E 18:15:39 10° NNE
ATLAS 5 CENTAUR R/B 2.5 18:06:19 10° SW 18:11:23 58° WNW 18:15:58 10° NNE
IDEFIX/ARIANE 42P 2.6 18:08:26 10° SSE 18:13:46 87° ENE 18:19:03 10° NNW
Cosmos 921 Rocket 3.9 18:09:44 10° NNW 18:13:49 48° WSW 18:17:59 10° S
BREEZE-M DEB (TANK) 4.1 18:08:18 10° W 18:15:54 31° SW 18:18:31 13° SSE
Lacrosse 4 Rocket 3.7 18:12:39 10° SW 18:16:07 27° WNW 18:19:33 10° NNW
Cosmos 2154 Rocket 4.0 18:10:22 10° N 18:16:26 58° E 18:22:34 10° SSE
Nadezhda 3 Rocket 4.2 18:12:05 10° S 18:18:22 52° E 18:24:34 10° NNE
Cosmos 1697 Rocket 2.7 18:13:24 10° NNW 18:19:02 73° ENE 18:24:46 10° SSE
CSL-04 Rocket 3.7 18:15:26 10° SSE 18:21:02 81° ENE 18:26:29 10° NNW
Molniya-1 3.6 18:15:46 10° SSW 18:22:29 68° SE 18:25:36 10° NE
SJ-12 3.9 18:18:54 10° SSE 18:23:05 85° ENE 18:27:11 10° NNW
Cosmos 1842 4.3 18:20:43 10° SSW 18:24:35 48° W 18:28:25 10° NNW
Kosmos-1783 4.2 18:23:09 10° NW 18:26:06 43° SW 18:28:01 16° SSE
Meteor 2-8 Rocket 4.4 18:23:04 10° S 18:29:16 65° E 18:35:23 10° NNE
APEX 4.0 18:24:55 10° SSW 18:29:19 78° WNW 18:34:59 10° NNE
Cosmos 1953 Rocket 3.5 18:25:02 10° S 18:29:34 66° E 18:34:00 10° NNE
COSMOS 2441 4.3 18:26:42 10° SSE 18:31:37 73° ENE 18:36:25 10° N
Cosmos 1707 3.3 18:28:02 10° SSE 18:31:39 34° ESE 18:35:13 10° NE
YAOGAN 1 3.0 18:29:15 21° SE 18:31:47 40° E 18:35:53 10° N
Cosmos 2227 Rocket 3.2 18:28:42 10° SSW 18:34:12 50° WNW 18:39:40 10° N
Meteor 2-19 Rocket 4.4 18:28:27 10° N 18:34:31 66° E 18:40:37 10° SSE
CZ-2C R/B 2.8 18:32:54 10° S 18:37:43 61° WSW 18:42:20 10° NNW
CSL-04 Debris 4.3 18:32:15 10° SSE 18:37:50 82° WSW 18:43:21 10° NNW
Cosmos 2228 3.0 18:37:12 10° N 18:41:31 64° E 18:44:45 18° SSE
IRS-1A Rocket 4.3 18:35:44 10° SSE 18:41:34 74° ENE 18:47:25 10° N
OAO 2 Rocket 3.6 18:37:57 10° WNW 18:42:53 60° N 18:45:09 31° ENE
PSLV R/B 3.1 18:40:28 10° WSW 18:43:36 59° SSE 18:43:43 59° SSE
Cosmos 676 Rocket 4.4 18:38:59 10° SSW 18:44:21 68° WNW 18:49:37 10° N
Cosmos 1420 Rocket 4.0 18:40:23 10° NNW 18:45:36 88° W 18:49:58 16° SSE
Cosmos 962 Rocket 4.4 18:44:00 10° N 18:50:13 81° E 18:56:36 10° S
ATLAS CENTAUR R/B 1.4 18:49:50 10° NNW 18:54:06 86° ENE 18:55:33 42° SE
SPOT 3 Rocket 3.7 18:54:27 35° SE 18:56:19 52° E 19:01:22 10° N
CZ-4C R/B 4.0 18:53:23 10° S 18:55:42 16° SSE 18:55:42 16° SSE
SL-8 Rocket 4.0 18:53:30 10° N 18:59:37 57° E 19:04:07 19° SSE
Cosmos 2218 Rocket 4.2 18:53:35 10° NNE 18:59:42 48° E 19:02:36 29° SE
BREEZE-M DEB 4.3 18:57:28 10° WSW 19:01:14 53° SSE 19:04:23 33° E
Cosmos 1484 Rocket 3.0 18:59:50 26° S 19:02:01 73° WSW 19:06:00 10° NNW
Lacrosse 5 rocket 1.5 18:59:36 10° NW 19:04:04 75° SW 19:04:53 57° SSE
Meteor 1-4 Rocket 3.0 19:01:28 10° NNW 19:05:09 62° W 19:06:29 36° SSW
NOSS 3-1 (C) 4.5 18:58:10 10° N 19:05:52 40° ENE 19:07:27 37° E
SMAP 3.8 19:03:53 10° S 19:08:29 52° WSW 19:13:02 10° NNW
Hubble Space Telescope 2.9 19:06:46 10° NNW 19:09:22 16° NNE 19:09:24 16° NNE
Cosmos 1959 Rocket 4.4 19:07:15 10° N 19:13:14 61° E 19:15:14 41° SSE
Cosmos 2058 Rocket 4.2 19:11:42 10° NNW 19:15:59 43° W 19:19:46 13° S
Cosmos 2227 4.1 19:11:49 10° SSW 19:17:35 63° ESE 19:18:06 61° E
Cosmos 1140 Rocket 4.5 19:14:02 10° SSW 19:19:07 47° WNW 19:24:07 10° N
Cosmos 1980 Rocket 2.7 19:15:31 10° NW 19:21:03 58° WSW 19:23:57 28° S
SL-16 R/B 2.8 19:15:48 10° N 19:19:50 39° NE 19:19:50 39° NE
SL-08 R/B 4.5 19:15:46 10° N 19:22:08 64° E 19:23:37 50° SE
Cosmos 2366 rocket 3.9 19:15:57 10° N 19:22:12 65° E 19:23:32 52° SE
CZ-4 R/B 3.8 19:34:38 12° SSW 19:37:21 22° WSW 19:40:34 10° WNW
Tiangong 2 4.2 19:37:50 10° WSW 19:38:32 15° WSW 19:38:32 15° WSW
USA 229 DEB 4.2 19:40:12 10° NW 19:47:27 61° SW 19:49:45 43° S
USA 229 4.2 19:40:17 10° NW 19:47:33 61° SW 19:49:50 43° S
Cosmos 2322 Rocket 2.9 19:46:08 10° NNW 19:49:57 45° NNW 19:49:57 45° NNW
NOSS 3-1 (A) 4.2 19:47:03 10° NNW 19:54:18 57° NNE 19:54:18 57° NNE
Centaur D AC-28 4.2 20:12:46 10° W 20:47:16 52° NNW 20:47:16 52° NNW
